Flag Weather past 2 weeks in Kamp-Lintfort, North Rhine-Westphalia, Germany

Now
34 °F

Fog.


Feels Like: 34 °F
Forecast: 37 / 44 °F
Wind: 2 mph from Northeast

Location: Duesseldorf

Current Time: Nov 29, 2014 at 12:33:30 AM

Latest Report: Nov 29, 2014 at 12:00 AM


Visibility: 8 mi

Pressure: 29.94 "Hg

Humidity: 97%

Dew point: 33 °F

Location of Kamp-LintfortLocation

Historic Weather in Kamp-Lintfort — Graph

°F

Kamp-Lintfort temperature yesterday

Maximum temperature yesterday: 50 °F (at 1:00 PM)
Minimum temperature yesterday: 34 °F (at 11:00 PM)
Average temperature yesterday: 43 °F

Past Weeks' High & Low Weather Summary

 TemperatureHumidityPressure
High58 °F (Nov 23, 2:00 PM)99% (Nov 20, 4:00 AM)30.36 "Hg (Nov 20, 4:00 AM)
Low30 °F (Nov 25, 5:00 AM)58% (Nov 24, 3:00 PM)29.53 "Hg (Nov 16, 5:00 PM)
Average46 °F84%29.95 "Hg
* Reported Nov 13 11:00 PM — Nov 28 11:00 PM, Kamp-Lintfort, Weather by CustomWeather, © 2014

Note: Actual official high and low records may vary slightly from our data, if they occured in-between our weather recording intervals... More about our weather records

Advertising

Kamp-Lintfort weather history for previous 24 hours

 ConditionsComfort  
Time TempWeatherWind HumidityBarometerVisibility
11:00 PM
Nov 28
34 °FFog.2 mph95%29.92 "Hg9 mi
9:00 PM35 °FPassing clouds.3 mph97%29.90 "Hg9 mi
8:00 PM38 °FPassing clouds.3 mph93%29.89 "Hg9 mi
7:00 PM38 °FPassing clouds.3 mph90%29.87 "Hg9 mi
6:00 PM42 °FPassing clouds.2 mph84%29.86 "Hg9 mi
5:00 PM44 °FPassing clouds.2 mph79%29.84 "Hg9 mi
3:00 PM50 °FPartly sunny.2 mph68%29.80 "Hg12 mi
2:00 PM49 °FPartly sunny.3 mph69%29.81 "Hg12 mi
1:00 PM50 °FScattered clouds.5 mph69%29.80 "Hg9 mi
12:00 PM47 °FPartly sunny.3 mph75%29.81 "Hg7 mi
11:00 AM46 °FOvercast.6 mph77%29.82 "Hg11 mi
10:00 AM45 °FOvercast.5 mph80%29.82 "Hg9 mi
9:00 AM44 °FOvercast.3 mph80%29.81 "Hg9 mi
8:00 AM43 °FOvercast.3 mph82%29.79 "Hg7 mi
7:00 AM44 °FOvercast.3 mph81%29.78 "Hg9 mi
6:00 AM43 °FPassing clouds.5 mph85%29.78 "Hg9 mi
5:00 AM43 °FPassing clouds.3 mph84%29.78 "Hg9 mi
3:00 AM43 °FOvercast.6 mph84%29.78 "Hg9 mi
2:00 AM44 °FOvercast.7 mph84%29.78 "Hg9 mi
1:00 AM43 °FOvercast.8 mph85%29.78 "Hg9 mi
12:00 AM43 °FPassing clouds.9 mph85%29.77 "Hg9 mi
Weather by CustomWeather, © 2014

See weather overviewHow to use our weather pages